Flag for Taiwan

Past Weather in 23°59'46.113"N, 121°38'10.182"E, Taiwan — Yesterday and Last 2 Weeks

Now
90 °F

Scattered clouds.


Feels Like: 98 °F
Forecast: 88 / 74 °F
Wind: 15 mph from East

Location: Sungshan / Taipei
Current Time: Sep 22, 2020 at 1:20:50 pm
Latest Report: Sep 22, 2020 at 12:30 pm
Visibility: N/A
Pressure29.86 "Hg
Humidity: 59%
Dew Point: 73 °F
Location of 23°59'46.113"N, 121°38'10.182"ELocation

Past Weather in 23°59'46.113"N, 121°38'10.182"E — Graph

°F

23°59'46.113"N, 121°38'10.182"E Temperature Yesterday

Maximum temperature yesterday: 90 °F (at 2:30 pm)
Minimum temperature yesterday: 77 °F (at 12:00 am)
Average temperature yesterday: 82 °F

High & Low Weather Summary for the Past Weeks

 TemperatureHumidityPressure
High99 °F (Sep 17, 4:00 pm)100% (Sep 9, 7:00 pm)29.92 "Hg (Sep 9, 7:00 pm)
Low73 °F (Sep 22, 6:00 am)34% (Sep 7, 12:00 pm)29.68 "Hg (Sep 10, 2:30 pm)
Average86 °F76%29.83 "Hg
* Reported Sep 7 12:00 pm — Sep 22 12:00 pm, 23°59'46.113"N, 121°38'10.182"E. Weather by CustomWeather, © 2020

Note: Actual official high and low records may vary slightly from our data, if they occured in-between our weather recording intervals... More about our weather records

23°59'46.113"N, 121°38'10.182"E Weather History for the Previous 24 Hours

Scroll right to see more
 ConditionsComfort  
Time TempWeatherWind HumidityBarometerVisibility
12:00 pm
Tue, Sep 22
88 °FScattered clouds.14 mph55%29.86 "HgN/A
11:30 am90 °FScattered clouds.16 mph55%29.86 "HgN/A
11:00 am88 °FScattered clouds.14 mph55%29.86 "HgN/A
10:30 am90 °FScattered clouds.14 mph52%29.89 "HgN/A
10:00 am88 °FPassing clouds.9 mph52%29.89 "HgN/A
9:30 am86 °FScattered clouds.13 mph62%29.89 "HgN/A
9:00 am86 °FScattered clouds.13 mph62%29.89 "HgN/A
8:30 am86 °FScattered clouds.12 mph59%29.89 "HgN/A
8:00 am84 °FScattered clouds.7 mph66%29.89 "HgN/A
7:30 am82 °FScattered clouds.7 mph70%29.89 "HgN/A
7:00 am81 °FPassing clouds.6 mph74%29.89 "HgN/A
6:30 am77 °FScattered clouds.3 mph83%29.86 "HgN/A
6:00 am73 °FScattered clouds.6 mph89%29.86 "HgN/A
5:00 am75 °FPassing clouds.5 mph83%29.86 "HgN/A
4:00 am75 °FPassing clouds.3 mph78%29.86 "HgN/A
3:00 am75 °FClear.5 mph83%29.86 "Hg10 mi
2:00 am75 °FClear.7 mph78%29.86 "Hg10 mi
1:00 am77 °FPassing clouds.8 mph79%29.86 "HgN/A
12:00 am77 °FPassing clouds.8 mph83%29.89 "HgN/A
11:30 pm
Mon, Sep 21
79 °FPassing clouds.7 mph74%29.89 "HgN/A
11:00 pm81 °FPassing clouds.7 mph84%29.89 "HgN/A
10:30 pm81 °FPassing clouds.7 mph84%29.89 "HgN/A
10:00 pm82 °FPassing clouds.7 mph74%29.89 "HgN/A
9:30 pm82 °FPassing clouds.8 mph66%29.89 "HgN/A
9:00 pm82 °FPassing clouds.8 mph66%29.89 "HgN/A
8:30 pm82 °FPassing clouds.10 mph79%29.89 "HgN/A
8:00 pm81 °FPassing clouds.8 mph70%29.89 "HgN/A
7:30 pm82 °FPassing clouds.8 mph66%29.86 "HgN/A
7:00 pm82 °FPassing clouds.9 mph70%29.86 "HgN/A
6:30 pm82 °FPassing clouds.8 mph70%29.86 "HgN/A
6:00 pm82 °FPassing clouds.10 mph70%29.86 "HgN/A
5:30 pm84 °FScattered showers. Passing clouds.9 mph66%29.86 "HgN/A
5:00 pm86 °FPassing clouds.12 mph62%29.86 "HgN/A
4:30 pm86 °FPassing clouds.10 mph66%29.86 "HgN/A
4:00 pm88 °FScattered clouds.12 mph62%29.83 "HgN/A
3:30 pm88 °FPassing clouds.12 mph70%29.83 "HgN/A
3:00 pm88 °FPassing clouds.10 mph66%29.83 "HgN/A
2:30 pm90 °FPassing clouds.12 mph59%29.83 "HgN/A
1:30 pm88 °FScattered clouds.13 mph59%29.86 "HgN/A
1:00 pm88 °FBroken clouds.12 mph62%29.86 "HgN/A
Weather by CustomWeather, © 2020

See weather overview